Location: Newark
(34.3481°N, 134.0494°E)
Time: 11:49:51
(UTC+00:00)

Tiros 1 - Visible Passes

Search period start: 27 January 2020 00:00
Search period end: 06 February 2020 00:00
Orbit: 630 x 664 km, 48.4° (Epoch: 26 January)

Date Brightness Start Highest point End Pass type
(mag) Time Alt. Az. Time Alt. Az. Time Alt. Az.
27 Jan 7.3 08:51:18 10° NW 08:56:01 55° NE 09:00:43 10° ESE visible
27 Jan 9.2 10:34:04 10° WNW 10:37:58 25° SW 10:40:55 14° S visible
28 Jan 7.6 09:17:20 10° WNW 09:22:05 67° SW 09:26:51 10° SE visible
29 Jan 9.3 09:43:55 10° WNW 09:47:56 27° SW 09:51:58 10° S visible
30 Jan 10.4 10:12:47 10° WSW 10:13:36 10° SW 10:14:24 10° SW visible
31 Jan 9.3 08:53:46 10° WNW 08:57:54 30° SW 09:02:04 10° SSE visible
01 Feb 10.4 09:21:55 10° WSW 09:23:35 12° SW 09:25:15 10° SSW visible
04 Feb 10.2 21:25:33 10° SSE 21:27:43 13° SE 21:29:53 10° E visible
